TimePST,TemperatureF,Dew PointF,Humidity,Sea Level PressureIn,VisibilityMPH,Wind Direction,Wind SpeedMPH,Gust SpeedMPH,PrecipitationIn,Events,Conditions,WindDirDegrees,DateUTC
12:53 AM,59.0,28.9,32,30.26,10.0,Variable,3.5,-,N/A,,Clear,0,2013-02-28 08:53:00
1:53 AM,53.1,33.1,47,30.27,10.0,Calm,Calm,-,N/A,,Clear,0,2013-02-28 09:53:00
2:53 AM,55.0,24.1,30,30.25,10.0,ENE,3.5,-,N/A,,Clear,60,2013-02-28 10:53:00
3:53 AM,54.0,24.1,31,30.25,10.0,ENE,4.6,-,N/A,,Clear,60,2013-02-28 11:53:00
4:53 AM,50.0,24.1,36,30.27,10.0,Calm,Calm,-,N/A,,Clear,0,2013-02-28 12:53:00
5:53 AM,57.0,18.0,22,30.28,10.0,Calm,Calm,-,N/A,,Clear,0,2013-02-28 13:53:00
6:53 AM,60.1,15.1,17,30.28,10.0,Variable,4.6,-,N/A,,Partly Cloudy,0,2013-02-28 14:53:00
7:53 AM,62.1,17.1,18,30.30,10.0,NE,5.8,-,N/A,,Clear,50,2013-02-28 15:53:00
8:53 AM,66.9,18.0,15,30.31,10.0,Variable,3.5,-,N/A,,Clear,0,2013-02-28 16:53:00
9:53 AM,71.1,16.0,12,30.31,10.0,East,3.5,-,N/A,,Clear,80,2013-02-28 17:53:00
10:53 AM,73.0,12.9,10,30.31,10.0,Calm,Calm,-,N/A,,Clear,0,2013-02-28 18:53:00
11:53 AM,75.0,12.0,9,30.29,10.0,Variable,3.5,-,N/A,,Clear,0,2013-02-28 19:53:00
12:53 PM,72.0,33.1,24,30.27,10.0,West,13.8,-,N/A,,Clear,270,2013-02-28 20:53:00
1:53 PM,70.0,18.0,14,30.27,10.0,West,13.8,-,N/A,,Clear,280,2013-02-28 21:53:00
2:53 PM,71.1,14.0,11,30.27,10.0,West,11.5,-,N/A,,Clear,270,2013-02-28 22:53:00
3:53 PM,66.0,39.0,37,30.26,10.0,West,12.7,-,N/A,,Clear,260,2013-02-28 23:53:00
4:53 PM,63.0,41.0,45,30.26,10.0,West,15.0,-,N/A,,Clear,270,2013-03-01 00:53:00
5:53 PM,62.1,41.0,46,30.27,10.0,West,10.4,-,N/A,,Partly Cloudy,270,2013-03-01 01:53:00
6:53 PM,60.1,44.1,55,30.28,10.0,West,8.1,-,N/A,,Clear,260,2013-03-01 02:53:00
7:53 PM,60.1,44.1,55,30.29,10.0,West,5.8,-,N/A,,Clear,260,2013-03-01 03:53:00
8:53 PM,60.1,46.9,62,30.30,10.0,Calm,Calm,-,N/A,,Clear,0,2013-03-01 04:53:00
9:53 PM,57.9,44.1,60,30.30,10.0,ESE,4.6,-,N/A,,Clear,110,2013-03-01 05:53:00
10:53 PM,59.0,44.1,58,30.30,10.0,Variable,3.5,-,N/A,,Clear,0,2013-03-01 06:53:00
11:53 PM,60.1,41.0,49,30.30,10.0,ENE,3.5,-,N/A,,Clear,60,2013-03-01 07:53:00